Location: Val de Santo Domingo
(40.0124°N, 4.3273°W)
Time: 04:29:41
(UTC+00:00)

Meteor 2-20 Rocket - Visible Passes

Search period start: 06 June 2026 00:00
Search period end: 16 June 2026 00:00
Orbit: 872 x 1023 km, 82.5° (Epoch: 5 June)

Date Brightness Start Highest point End Pass type
(mag) Time Alt. Az. Time Alt. Az. Time Alt. Az.
6 Jun 4.4 21:17:36 17° SSE 21:21:59 59° E 21:27:44 10° NNE visible
6 Jun 6.6 23:03:26 10° WSW 23:07:18 18° WNW 23:11:15 10° NNW visible
7 Jun 4.3 21:33:46 13° S 21:38:52 86° W 21:44:48 10° N visible
7 Jun 7.0 23:23:03 10° W 23:24:40 11° WNW 23:26:17 10° NW visible
8 Jun 5.0 21:50:15 10° SSW 21:55:51 54° W 22:01:39 10° N visible
9 Jun 5.2 20:23:18 10° SSE 20:28:15 31° E 20:33:19 10° NNE visible
9 Jun 5.8 22:07:47 10° SW 22:12:57 34° WNW 22:18:18 10° N visible
10 Jun 4.6 20:39:29 10° SSE 20:45:00 50° E 20:50:42 10° NNE visible
10 Jun 6.5 22:25:47 10° WSW 22:30:10 22° WNW 22:34:39 10° NNW visible
11 Jun 4.3 20:56:06 10° S 21:01:51 80° E 21:07:50 10° N visible
11 Jun 6.9 22:44:39 10° W 22:47:29 14° WNW 22:50:22 10° NW visible
12 Jun 4.8 21:13:04 10° SSW 21:18:48 65° W 21:24:45 10° N visible
13 Jun 5.6 21:30:27 10° SW 21:35:51 40° WNW 21:41:30 10° N visible
14 Jun 6.4 21:48:15 10° SW 21:53:02 26° WNW 21:57:59 10° NNW visible
15 Jun 4.4 20:19:06 10° S 20:24:51 68° E 20:30:51 10° NNE visible
15 Jun 6.9 22:06:42 10° WSW 22:10:19 17° WNW 22:14:02 10° NNW visible
